Location: El Conde
(10.2895°N, 67.2409°W)
Time: 18:26:08
(UTC+00:00)

Cosmos 1867 - Pass Details

Date: 19 May 2024
Orbit: 772 x 802 km, 65.0° (Epoch: 11 June)

Event Time Altitude Azimuth Distance (km) Brightness Sun altitude
Rises 23:38:13 0° 336° (NNW) 3,292 7.6 -13.1°
Reaches altitude 10° 23:40:39 10° 335° (NNW) 2,359 6.8 -13.7°
Maximum altitude 23:46:04 81° 249° (WSW) 803 3.6 -14.9°
Enters shadow 23:51:02 12° 162° (SSE) 2,175 5.5 -16.0°
